Wichita, KS

4:44 AM CDT on March 27, 2017 (GMT -0500)
Wichita Eisenhower National Airport

Weather History for KICT - March, 2014

Change the Weather History Date:

Saturday, March 29, 2014

  Actual Average Record
Temperature  
Mean Temperature 49 °F 50 °F  
Max Temperature 66 °F 62 °F 90 °F (1895)
Min Temperature 31 °F 39 °F 16 °F (1894)
Degree Days  
Heating Degree Days 16 15  
Month to date heating degree days 668 548  
Since 1 July heating degree days 4587 4188  
Cooling Degree Days 0 0  
Month to date cooling degree days 0 0  
Year to date cooling degree days 0 0  
Moisture  
Dew Point 31 °F    
Average Humidity 59    
Maximum Humidity 89    
Minimum Humidity 28    
Precipitation  
Precipitation 0.00 in 0.10 in 1.10 in (1980)
Month to date precipitation 0.49 2.49  
Year to date precipitation 1.48 4.50  
Snow  
Snow 0.00 in 0.10 in 3.00 in (1926)
Month to date snowfall 3.2 2.2  
Since 1 July snowfall 22.7 14.6  
Snow Depth 0.00 in    
Sea Level Pressure  
Sea Level Pressure 30.22 in    
Wind  
Wind Speed 7 mph (NE)    
Max Wind Speed 16 mph    
Max Gust Speed 20 mph    
Visibility 7 miles    
Events      
T = Trace of Precipitation, MM = Missing Value Source: NWS Daily Summary

Daily Weather History Graph

Daily Weather History Graph

Search for Another Location

Airport or City:

Trip Planner

Search our weather history database for the weather conditions in past years. The results will help you decide how hot, cold, wet, or windy it might be!

Date:

Astronomy

Mar. 29, 2014 Rise Set
Actual Time 7:19 AM CDT 7:49 PM CDT
Civil Twilight 6:53 AM CDT 8:16 PM CDT
Nautical Twilight 6:22 AM CDT 8:47 PM CDT
Astronomical Twilight 5:50 AM CDT 9:18 PM CDT
Moon 6:27 AM CDT (3/29) 6:57 PM CDT (3/29)
Length of Visible Light 13h 22m
Length of Day
12h 30m
Waning Crescent, 2% of the Moon is Illuminated
Mar 29
Waning Crescent
Mar 30
New
Apr 7
First Quarter
Apr 15
Full
Apr 22
Last Quarter

Hourly Weather History & Observations

Time (CDT) Temp. Windchill Dew Point Humidity Pressure Visibility Wind Dir Wind Speed Gust Speed Precip Events Conditions
12:53 AM 39.9 °F 37.8 °F 30.9 °F 70% 30.17 in 8.0 mi NE 3.5 mph - N/A   Clear
1:53 AM 36.0 °F 33.3 °F 28.9 °F 76% 30.18 in 8.0 mi NW 3.5 mph - N/A   Clear
2:53 AM 37.9 °F 33.5 °F 30.0 °F 73% 30.20 in 8.0 mi NNE 5.8 mph - N/A   Clear
3:53 AM 36.0 °F 32.1 °F 30.0 °F 79% 30.21 in 8.0 mi North 4.6 mph - N/A   Clear
4:53 AM 36.0 °F 32.1 °F 30.0 °F 79% 30.22 in 7.0 mi North 4.6 mph - N/A   Clear
5:53 AM 35.1 °F 26.9 °F 30.0 °F 82% 30.25 in 7.0 mi North 11.5 mph - N/A   Clear
6:53 AM 34.0 °F 26.6 °F 28.9 °F 82% 30.27 in 6.0 mi NNE 9.2 mph - N/A   Haze
7:53 AM 33.1 °F 30.0 °F 30.0 °F 89% 30.32 in 4.0 mi NW 3.5 mph - N/A   Clear
8:53 AM 36.0 °F 33.3 °F 32.0 °F 86% 30.33 in 4.0 mi NNE 3.5 mph - N/A   Clear
9:53 AM 39.0 °F 34.0 °F 32.0 °F 76% 30.33 in 5.0 mi North 6.9 mph - N/A   Haze
10:53 AM 45.0 °F 41.8 °F 34.0 °F 65% 30.32 in 5.0 mi NNE 5.8 mph - N/A   Haze
11:53 AM 50.0 °F - 35.1 °F 57% 30.32 in 5.0 mi North 3.5 mph - N/A   Haze
12:53 PM 55.0 °F - 34.0 °F 45% 30.29 in 5.0 mi WNW 3.5 mph - N/A   Haze
1:53 PM 57.9 °F - 34.0 °F 41% 30.26 in 6.0 mi ESE 4.6 mph - N/A   Haze
2:53 PM 61.0 °F - 34.0 °F 36% 30.23 in 6.0 mi SSW 6.9 mph - N/A   Haze
3:53 PM 64.0 °F - 32.0 °F 30% 30.21 in 7.0 mi Variable 4.6 mph - N/A   Scattered Clouds
4:53 PM 64.9 °F - 32.0 °F 29% 30.18 in 8.0 mi South 8.1 mph - N/A   Scattered Clouds
5:53 PM 64.0 °F - 30.9 °F 29% 30.16 in 8.0 mi South 10.4 mph - N/A   Scattered Clouds
6:53 PM 63.0 °F - 30.9 °F 30% 30.15 in 9.0 mi South 11.5 mph - N/A   Scattered Clouds
7:53 PM 55.0 °F - 30.9 °F 40% 30.16 in 9.0 mi South 8.1 mph - N/A   Scattered Clouds
8:53 PM 52.0 °F - 30.9 °F 45% 30.17 in 10.0 mi SSE 9.2 mph - N/A   Partly Cloudy
9:53 PM 53.1 °F - 28.0 °F 38% 30.16 in 9.0 mi SSE 11.5 mph - N/A   Scattered Clouds
10:53 PM 51.1 °F - 27.0 °F 39% 30.16 in 10.0 mi SSE 10.4 mph - N/A   Partly Cloudy
11:53 PM 50.0 °F - 28.0 °F 43% 30.14 in 10.0 mi SE 12.7 mph - N/A   Scattered Clouds